WAT886 YSSY-YMML

Flight info

Callsign WAT886
Flight time N/A
Altitude 30000
Route TESAT H65 LEECE Q29 ML
Aircraft RJ1H/M-SDFGIRWY/LB1

Departure

Time 2026-05-06 11:00
Airport Sydney Kingsford Smith International Airport (YSSY)

Arrival

Time N/A
Airport Melbourne Airport (YMML)
Time Latitude Longitude Altitude Speed Heading
2026-05-06 10:28 -33.93532 151.18617 30 ft 0 kts 346°
2026-05-06 10:39 -33.93534 151.18618 30 ft 0 kts 346°
2026-05-06 10:39 -33.93536 151.18619 30 ft 0 kts 346°
2026-05-06 10:40 -33.93540 151.18620 30 ft 1 kts 346°
2026-05-06 10:40 -33.93544 151.18621 30 ft 1 kts 344°
2026-05-06 10:40 -33.93547 151.18622 30 ft 0 kts 343°
2026-05-06 10:40 -33.93574 151.18632 30 ft 3 kts 342°
2026-05-06 10:41 -33.93591 151.18639 30 ft 3 kts 342°
2026-05-06 10:41 -33.93609 151.18646 30 ft 3 kts 340°
2026-05-06 10:41 -33.93625 151.18655 30 ft 3 kts 304°
2026-05-06 10:41 -33.93626 151.18669 30 ft 0 kts 230°
2026-05-06 10:44 -33.93633 151.18652 30 ft 6 kts 248°
2026-05-06 10:44 -33.93652 151.18574 30 ft 13 kts 255°
2026-05-06 10:45 -33.93675 151.18447 30 ft 18 kts 258°
2026-05-06 10:45 -33.93719 151.18298 30 ft 18 kts 253°
2026-05-06 10:45 -33.93749 151.18158 30 ft 17 kts 256°
2026-05-06 10:45 -33.93782 151.18021 30 ft 17 kts 253°
2026-05-06 10:46 -33.93814 151.17886 30 ft 16 kts 253°
2026-05-06 10:46 -33.93823 151.17853 30 ft 0 kts 253°
2026-05-06 10:46 -33.93823 151.17852 30 ft 0 kts 253°
2026-05-06 10:47 -33.93824 151.17848 30 ft 2 kts 254°
2026-05-06 10:48 -33.93836 151.17800 29 ft 11 kts 245°
2026-05-06 10:48 -33.93933 151.17786 29 ft 20 kts 168°
2026-05-06 10:48 -33.94079 151.17825 28 ft 23 kts 168°
2026-05-06 10:48 -33.94206 151.17859 29 ft 15 kts 166°
2026-05-06 10:49 -33.94313 151.17884 30 ft 16 kts 167°
2026-05-06 10:49 -33.94431 151.17912 30 ft 18 kts 183°
2026-05-06 10:49 -33.94557 151.17890 30 ft 19 kts 168°
2026-05-06 10:49 -33.94694 151.17926 30 ft 21 kts 169°
2026-05-06 10:50 -33.94839 151.17964 30 ft 22 kts 167°
2026-05-06 10:50 -33.94991 151.18005 30 ft 23 kts 168°
2026-05-06 10:50 -33.95050 151.18019 30 ft 0 kts 168°
2026-05-06 10:51 -33.95051 151.18019 30 ft 1 kts 168°
2026-05-06 10:51 -33.95070 151.18024 30 ft 5 kts 161°
2026-05-06 10:51 -33.95102 151.18082 30 ft 13 kts 96°
2026-05-06 10:51 -33.95078 151.18221 30 ft 20 kts 79°
2026-05-06 10:52 -33.95048 151.18393 30 ft 22 kts 77°
2026-05-06 10:52 -33.95040 151.18437 30 ft 0 kts 77°
2026-05-06 10:52 -33.95037 151.18451 30 ft 9 kts 78°
2026-05-06 10:53 -33.95028 151.18512 30 ft 1 kts 89°
2026-05-06 10:53 -33.95059 151.18513 30 ft 11 kts 185°
2026-05-06 10:53 -33.95153 151.18581 30 ft 22 kts 135°
2026-05-06 10:53 -33.95249 151.18680 30 ft 22 kts 146°
2026-05-06 10:54 -33.95428 151.18747 29 ft 30 kts 168°
2026-05-06 10:54 -33.95625 151.18800 29 ft 28 kts 167°
2026-05-06 10:54 -33.95808 151.18846 30 ft 26 kts 168°
2026-05-06 10:54 -33.95977 151.18891 30 ft 24 kts 172°
2026-05-06 10:55 -33.96114 151.18926 30 ft 19 kts 165°
2026-05-06 10:55 -33.96239 151.18959 30 ft 17 kts 168°
2026-05-06 10:55 -33.96351 151.18988 30 ft 16 kts 167°
2026-05-06 10:55 -33.96460 151.19017 29 ft 17 kts 168°
2026-05-06 10:56 -33.96582 151.19048 29 ft 19 kts 169°
2026-05-06 10:56 -33.96717 151.19074 29 ft 20 kts 182°
2026-05-06 10:56 -33.96862 151.19075 30 ft 22 kts 166°
2026-05-06 10:56 -33.97010 151.19114 30 ft 21 kts 167°
2026-05-06 10:57 -33.97120 151.19164 30 ft 14 kts 124°
2026-05-06 10:57 -33.97114 151.19256 28 ft 0 kts 74°
2026-05-06 10:58 -33.97107 151.19289 27 ft 8 kts 77°
2026-05-06 10:58 -33.97060 151.19360 26 ft 12 kts 19°
2026-05-06 10:58 -33.97016 151.19360 24 ft 0 kts 348°
2026-05-06 10:59 -33.97015 151.19360 24 ft 2 kts 348°
2026-05-06 10:59 -33.96933 151.19339 26 ft 25 kts 348°
2026-05-06 10:59 -33.96650 151.19264 23 ft 70 kts 347°
2026-05-06 10:59 -33.95954 151.19081 28 ft 132 kts 347°
2026-05-06 11:00 -33.94961 151.18846 402 ft 151 kts 349°
2026-05-06 11:00 -33.93896 151.18624 1026 ft 158 kts 349°
2026-05-06 11:00 -33.92840 151.18619 1789 ft 157 kts 21°
2026-05-06 11:00 -33.92076 151.19653 2228 ft 181 kts 66°
2026-05-06 11:01 -33.92001 151.21172 2970 ft 183 kts 96°
2026-05-06 11:01 -33.92335 151.22687 3576 ft 188 kts 105°